period_start,C,m1,H,J0,J1,J2,J3,J4,J5,JA,JB,JC,JD,JJ,JK,JN,#
2015-04-17 00:02:29,0.18,1.12,0.00,23.75,28.14,30.75,4.78,24.60,1024.45,2028.54,3000.29,2984.77,3237.84,349.94,349.42,6.39,0000 0000 0000 0000 000000
2015-04-17 00:07:30,0.23,1.12,0.00,24.04,28.12,30.32,4.75,24.52,1024.44,2028.80,2998.05,2983.32,3236.30,349.53,348.75,6.42,0000 0000 0000 0000 000000
2015-04-17 00:12:31,0.21,1.13,0.00,24.30,28.10,30.19,4.74,24.35,1024.42,2028.97,2996.07,2981.80,3234.69,349.98,348.72,6.45,0000 0000 0000 0000 000000
2015-04-17 00:17:33,0.17,1.13,0.00,24.37,28.08,30.28,4.75,24.45,1024.38,2028.99,2994.03,2980.31,3232.96,349.28,347.99,6.48,0000 0000 0000 0000 000000
2015-04-17 00:22:34,0.20,1.14,0.00,24.49,28.06,30.40,4.81,24.52,1024.27,2028.99,2991.91,2978.70,3231.16,349.98,348.54,6.51,0000 0000 0000 0000 000000
2015-04-17 00:27:35,0.19,1.15,0.00,24.15,28.04,30.38,4.77,24.70,1024.10,2028.99,2989.57,2977.02,3229.32,349.54,348.34,6.53,0000 0000 0000 0000 000000
2015-04-17 00:32:37,0.38,1.16,0.00,22.95,28.01,29.85,4.79,24.71,1024.01,2028.99,2986.34,2974.14,3226.24,349.68,350.23,6.56,0000 0000 0000 0000 000000
2015-04-17 00:37:38,0.17,1.16,0.00,22.20,27.97,29.57,4.81,24.89,1023.96,2028.99,2983.97,2972.39,3224.33,350.25,351.52,6.59,0000 0000 0000 0000 000000
2015-04-17 00:42:39,0.14,1.17,0.00,21.88,27.90,29.36,4.91,24.81,1023.94,2029.04,2982.18,2971.19,3223.06,350.25,351.78,6.62,0000 0000 0000 0000 000000
2015-04-17 00:47:40,0.37,1.18,0.00,21.81,27.82,29.09,4.81,24.75,1023.94,2029.81,2979.76,2969.43,3221.40,349.73,351.38,6.65,0000 0000 0000 0000 000000
2015-04-17 00:52:41,0.16,1.18,0.00,21.77,27.73,28.93,4.82,24.73,1023.94,2029.99,2978.06,2968.18,3219.71,350.04,351.64,6.68,0000 0000 0000 0000 000000
2015-04-17 00:57:43,0.26,1.19,0.00,21.71,27.63,28.72,4.88,24.98,1023.93,2030.02,2974.87,2966.30,3217.74,350.21,352.05,6.71,0000 0000 0000 0000 000000
2015-04-17 01:02:44,0.32,1.20,0.00,21.68,27.53,28.56,4.82,24.80,1023.69,2030.62,2972.19,2964.75,3216.23,350.06,351.77,6.74,0000 0000 0000 0000 000000
2015-04-17 01:07:45,0.11,1.20,0.00,21.67,27.43,28.46,4.79,24.74,1023.48,2030.97,2970.71,2964.01,3215.28,349.64,351.25,6.77,0000 0000 0000 0000 000000
2015-04-17 01:12:47,0.11,1.21,0.00,21.69,27.33,28.35,4.79,24.78,1023.45,2031.02,2969.35,2963.32,3214.72,350.44,351.99,6.80,0000 0000 0000 0000 000000
2015-04-17 01:17:48,0.22,1.21,0.00,21.77,27.25,28.34,4.79,24.75,1023.40,2031.71,2968.22,2962.65,3213.99,350.25,351.61,6.83,0000 0000 0000 0000 000000
2015-04-17 01:22:49,0.08,1.22,0.00,21.83,27.17,28.36,4.84,24.85,1023.16,2031.98,2967.20,2962.01,3213.20,350.46,351.70,6.86,0000 0000 0000 0000 000000
2015-04-17 01:27:51,0.08,1.22,0.00,21.85,27.10,28.35,4.76,24.69,1023.03,2032.00,2966.33,2961.51,3212.77,349.89,350.89,6.89,0000 0000 0000 0000 000000
2015-04-17 01:32:52,0.14,1.22,0.00,21.92,27.03,28.42,4.77,24.77,1023.01,2032.30,2965.12,2960.98,3212.03,350.24,351.54,6.92,0000 0000 0000 0000 000000
2015-04-17 01:37:53,0.17,1.23,0.00,22.28,26.98,28.89,4.85,24.76,1022.98,2032.94,2964.22,2960.29,3211.54,350.22,350.83,6.94,0000 0000 0000 0000 000000
2015-04-17 01:42:55,0.03,1.23,0.00,22.75,26.93,29.20,4.89,24.73,1023.07,2032.99,2963.64,2959.99,3211.00,350.51,350.71,6.97,0000 0000 0000 0000 000000
2015-04-17 01:47:56,0.11,1.23,0.00,23.12,26.92,29.36,4.81,24.73,1023.28,2033.01,2962.64,2959.22,3210.30,350.30,350.08,7.00,0000 0000 0000 0000 000000
2015-04-17 01:52:57,0.08,1.23,0.00,23.51,26.92,29.30,4.73,24.57,1023.30,2033.01,2961.65,2958.63,3209.63,349.96,349.44,7.03,0000 0000 0000 0000 000000
2015-04-17 01:57:58,0.06,1.24,0.00,23.85,26.93,29.31,4.71,24.67,1023.32,2033.04,2960.77,2958.01,3208.93,349.73,348.67,7.06,0000 0000 0000 0000 000000
2015-04-17 02:02:59,0.10,1.24,0.00,23.79,26.96,29.40,4.74,24.68,1023.27,2033.04,2959.77,2957.26,3208.08,349.79,348.92,7.09,0000 0000 0000 0000 000000
2015-04-17 02:08:01,0.12,1.24,0.00,23.59,27.00,29.58,4.80,24.67,1023.23,2033.04,2958.56,2956.39,3207.14,349.69,348.97,7.12,0000 0000 0000 0000 000000
2015-04-17 02:13:02,0.07,1.25,0.00,23.55,27.03,29.77,4.75,24.53,1023.25,2033.02,2957.54,2955.81,3206.45,349.89,349.14,7.15,0000 0000 0000 0000 000000
2015-04-17 02:18:03,0.07,1.25,0.00,23.51,27.06,29.94,4.78,24.67,1023.10,2033.00,2956.54,2955.05,3205.79,350.25,349.56,7.18,0000 0000 0000 0000 000000
2015-04-17 02:23:04,0.09,1.25,0.00,23.48,27.09,30.09,4.80,24.74,1023.01,2033.00,2955.57,2954.42,3205.01,349.55,349.09,7.21,0000 0000 0000 0000 000000
2015-04-17 02:28:06,0.09,1.25,0.00,23.49,27.11,30.19,4.74,24.59,1022.97,2033.00,2954.57,2953.80,3204.17,348.96,348.25,7.24,0000 0000 0000 0000 000000
2015-04-17 02:33:07,0.08,1.26,0.00,23.75,27.12,30.14,4.72,24.39,1022.99,2033.01,2953.67,2953.06,3203.58,349.52,348.79,7.27,0000 0000 0000 0000 000000
2015-04-17 02:38:08,0.10,1.26,0.00,23.93,27.15,30.12,4.77,24.51,1022.98,2033.00,2952.61,2952.40,3202.77,349.78,348.72,7.30,0000 0000 0000 0000 000000
2015-04-17 02:43:09,0.04,1.26,0.00,23.91,27.15,30.06,4.83,24.37,1022.98,2033.00,2951.74,2951.96,3202.03,350.48,349.27,7.33,0000 0000 0000 0000 000000
2015-04-17 02:48:10,0.10,1.26,0.00,23.74,27.17,30.06,4.77,24.37,1022.99,2033.00,2950.76,2951.15,3201.38,349.76,348.86,7.35,0000 0000 0000 0000 000000
2015-04-17 02:53:11,0.08,1.27,0.00,23.63,27.17,30.15,4.75,24.38,1023.00,2033.00,2949.78,2950.57,3200.74,349.83,349.09,7.38,0000 0000 0000 0000 000000
2015-04-17 02:58:13,0.06,1.27,0.00,23.58,27.18,30.15,4.79,24.33,1022.98,2033.00,2948.78,2949.93,3199.93,349.97,349.27,7.41,0000 0000 0000 0000 000000
2015-04-17 03:03:14,0.10,1.27,0.00,23.51,27.17,30.13,4.81,24.32,1022.96,2033.00,2947.77,2949.09,3199.07,350.26,349.68,7.44,0000 0000 0000 0000 000000
2015-04-17 03:08:15,0.08,1.27,0.00,23.47,27.17,30.11,4.86,24.43,1022.96,2033.00,2946.82,2948.52,3198.56,350.41,349.92,7.47,0000 0000 0000 0000 000000
2015-04-17 03:13:17,0.04,1.28,0.00,23.44,27.17,30.05,4.77,24.49,1022.95,2033.00,2945.94,2948.01,3197.99,349.04,348.27,7.50,0000 0000 0000 0000 000000
2015-04-17 03:18:18,0.10,1.28,0.00,23.40,27.17,30.01,4.87,24.43,1022.77,2033.00,2944.93,2947.37,3197.23,350.55,349.90,7.53,0000 0000 0000 0000 000000
2015-04-17 03:23:20,0.06,1.28,0.00,23.53,27.15,29.98,4.73,24.42,1022.67,2033.00,2944.02,2946.82,3196.52,349.38,348.61,7.56,0000 0000 0000 0000 000000
2015-04-17 03:28:21,0.08,1.28,0.00,23.80,27.15,29.96,4.71,24.45,1022.56,2033.00,2943.14,2946.03,3195.86,349.26,348.09,7.59,0000 0000 0000 0000 000000
2015-04-17 03:33:22,0.09,1.29,0.00,23.92,27.15,29.98,4.78,24.47,1022.52,2033.00,2942.18,2945.40,3195.05,349.51,348.23,7.62,0000 0000 0000 0000 000000
2015-04-17 03:38:24,0.10,1.29,0.00,23.92,27.15,30.00,4.75,24.38,1022.49,2033.00,2941.09,2944.62,3194.21,349.46,348.08,7.65,0000 0000 0000 0000 000000
2015-04-17 03:43:25,0.06,1.29,0.00,23.76,27.15,30.01,4.76,24.38,1022.48,2033.00,2940.04,2944.01,3193.62,349.84,348.66,7.68,0000 0000 0000 0000 000000
2015-04-17 03:48:26,0.11,1.29,0.00,23.67,27.15,30.03,4.80,24.50,1022.48,2033.00,2938.87,2943.25,3192.70,350.36,349.22,7.71,0000 0000 0000 0000 000000
2015-04-17 03:53:28,0.10,1.30,0.00,23.65,27.15,30.03,4.81,24.41,1022.48,2033.00,2937.73,2942.53,3191.90,349.95,348.68,7.74,0000 0000 0000 0000 000000
2015-04-17 03:58:29,0.07,1.30,0.00,23.62,27.15,30.02,4.77,24.57,1022.46,2033.00,2936.66,2941.89,3191.07,349.89,348.84,7.76,0000 0000 0000 0000 000000
2015-04-17 04:03:31,0.10,1.30,0.00,23.60,27.14,30.01,4.82,24.44,1022.47,2033.01,2935.67,2941.08,3190.37,350.00,348.79,7.79,0000 0000 0000 0000 000000
2015-04-17 04:08:32,0.11,1.30,0.00,23.56,27.12,30.00,4.80,24.41,1022.48,2033.00,2934.53,2940.34,3189.50,349.66,348.42,7.82,0000 0000 0000 0000 000000
2015-04-17 04:13:33,0.08,1.31,0.00,23.51,27.12,30.01,4.80,24.65,1022.48,2033.01,2933.38,2939.71,3188.75,350.38,349.49,7.85,0000 0000 0000 0000 000000
2015-04-17 04:18:35,0.07,1.31,0.00,23.50,27.11,29.99,4.80,24.46,1022.48,2033.01,2932.34,2938.99,3187.99,350.74,349.70,7.88,0000 0000 0000 0000 000000
2015-04-17 04:23:36,0.11,1.31,0.00,23.50,27.10,29.98,4.78,24.44,1022.45,2033.02,2931.17,2938.13,3187.11,349.85,348.96,7.91,0000 0000 0000 0000 000000
2015-04-17 04:28:37,0.11,1.32,0.00,23.47,27.10,29.98,4.75,24.43,1022.41,2033.03,2930.00,2937.33,3186.20,349.67,348.53,7.94,0000 0000 0000 0000 000000
2015-04-17 04:33:38,0.10,1.32,0.00,23.48,27.09,29.96,4.74,24.36,1022.36,2033.04,2928.86,2936.65,3185.45,349.63,348.73,7.97,0000 0000 0000 0000 000000
2015-04-17 04:38:40,0.10,1.32,0.00,23.48,27.07,29.94,4.85,24.60,1022.16,2033.04,2927.61,2935.87,3184.49,350.14,349.17,8.00,0000 0000 0000 0000 000000
2015-04-17 04:43:41,0.10,1.32,0.00,23.47,27.07,29.93,4.78,24.33,1022.03,2033.12,2926.54,2935.07,3183.83,350.22,349.15,8.03,0000 0000 0000 0000 000000
2015-04-17 04:48:42,0.15,1.33,0.00,23.47,27.06,29.91,4.83,24.36,1022.01,2033.35,2925.45,2934.30,3183.01,350.39,349.61,8.06,0000 0000 0000 0000 000000
2015-04-17 04:53:44,0.13,1.33,0.00,23.46,27.05,29.90,4.82,24.46,1021.99,2033.59,2924.28,2933.62,3182.10,349.96,348.95,8.09,0000 0000 0000 0000 000000
2015-04-17 04:58:45,0.09,1.34,0.00,23.45,27.05,29.90,4.79,24.22,1021.99,2033.66,2923.02,2932.77,3181.16,349.97,348.82,8.12,0000 0000 0000 0000 000000
2015-04-17 05:03:46,0.16,1.34,0.00,23.47,27.04,29.90,4.74,24.27,1021.97,2033.93,2921.78,2931.98,3180.26,349.89,348.79,8.15,0000 0000 0000 0000 000000
2015-04-17 05:08:47,0.12,1.34,0.00,23.47,27.02,29.88,4.74,24.51,1021.90,2033.97,2920.57,2931.08,3179.39,349.84,348.53,8.17,0000 0000 0000 0000 000000
2015-04-17 05:13:48,0.11,1.35,0.00,23.46,27.02,29.89,4.77,24.55,1021.84,2033.95,2919.24,2930.15,3178.42,350.43,349.25,8.20,0000 0000 0000 0000 000000
2015-04-17 05:18:50,0.12,1.35,0.00,23.48,27.02,29.86,4.85,24.39,1021.75,2033.94,2917.84,2929.22,3177.36,350.05,348.84,8.23,0000 0000 0000 0000 000000
2015-04-17 05:23:51,0.12,1.36,0.00,23.48,27.01,29.86,4.80,24.46,1021.65,2033.96,2916.50,2928.32,3176.36,350.17,349.04,8.26,0000 0000 0000 0000 000000
2015-04-17 05:28:52,0.12,1.36,0.00,23.47,27.00,29.87,4.73,24.12,1021.54,2033.97,2915.11,2927.40,3175.31,350.02,348.95,8.29,0000 0000 0000 0000 000000
2015-04-17 05:33:54,0.12,1.36,0.00,23.49,27.00,29.87,4.81,24.27,1021.51,2033.98,2913.76,2926.47,3174.37,350.09,348.87,8.32,0000 0000 0000 0000 000000
2015-04-17 05:38:55,0.12,1.37,0.00,23.48,27.00,29.86,4.78,24.24,1021.50,2033.97,2912.34,2925.47,3173.30,350.42,349.15,8.35,0000 0000 0000 0000 000000
2015-04-17 05:43:57,0.13,1.37,0.00,23.46,27.00,29.85,4.73,24.20,1021.51,2033.98,2910.88,2924.53,3172.30,349.97,348.73,8.38,0000 0000 0000 0000 000000
2015-04-17 05:48:58,0.12,1.37,0.00,23.47,26.99,29.87,4.75,24.38,1021.52,2033.98,2909.41,2923.57,3171.16,350.31,348.98,8.41,0000 0000 0000 0000 000000
2015-04-17 05:53:59,0.12,1.38,0.00,23.47,26.98,29.85,4.83,24.36,1021.51,2033.98,2907.89,2922.57,3170.12,350.25,349.05,8.44,0000 0000 0000 0000 000000
2015-04-17 05:59:00,0.12,1.38,0.00,23.47,26.97,29.84,4.76,24.18,1021.51,2033.99,2906.52,2921.64,3169.11,349.92,348.63,8.47,0000 0000 0000 0000 000000
2015-04-17 06:04:02,0.13,1.38,0.00,23.50,26.97,29.85,4.83,24.36,1021.51,2033.99,2904.98,2920.54,3167.98,350.09,348.95,8.50,0000 0000 0000 0000 000000
2015-04-17 06:09:03,0.13,1.39,0.00,23.48,26.97,29.85,4.76,24.32,1021.51,2033.99,2903.54,2919.60,3166.84,350.32,349.16,8.53,0000 0000 0000 0000 000000
2015-04-17 06:14:04,0.13,1.39,0.00,23.47,26.97,29.84,4.84,24.42,1021.50,2033.99,2902.01,2918.56,3165.69,350.04,348.83,8.56,0000 0000 0000 0000 000000
2015-04-17 06:19:05,0.13,1.40,0.00,23.47,26.97,29.84,4.75,24.32,1021.50,2033.99,2900.58,2917.56,3164.63,350.19,348.99,8.58,0000 0000 0000 0000 000000
2015-04-17 06:24:06,0.13,1.40,0.00,23.47,26.97,29.84,4.75,24.27,1021.50,2034.00,2899.04,2916.45,3163.47,350.38,349.21,8.61,0000 0000 0000 0000 000000
2015-04-17 06:29:08,0.13,1.40,0.00,23.47,26.96,29.84,4.85,24.41,1021.50,2034.00,2897.63,2915.51,3162.39,349.86,348.82,8.64,0000 0000 0000 0000 000000
2015-04-17 06:34:09,0.12,1.41,0.00,23.48,26.96,29.84,4.82,24.25,1021.50,2034.00,2896.17,2914.50,3161.31,350.29,349.05,8.67,0000 0000 0000 0000 000000
2015-04-17 06:39:10,0.14,1.41,0.00,23.48,26.95,29.82,4.77,24.20,1021.49,2034.00,2894.56,2913.40,3160.18,350.12,348.89,8.70,0000 0000 0000 0000 000000
2015-04-17 06:44:12,0.11,1.42,0.00,23.47,26.95,29.84,4.79,24.43,1021.45,2034.00,2893.26,2912.51,3159.12,350.02,348.89,8.73,0000 0000 0000 0000 000000
2015-04-17 06:49:13,0.12,1.42,0.00,23.49,26.95,29.83,4.83,24.29,1021.39,2034.00,2891.81,2911.60,3158.08,350.11,348.89,8.76,0000 0000 0000 0000 000000
2015-04-17 06:54:14,0.13,1.42,0.00,23.50,26.95,29.81,4.77,24.46,1021.25,2034.00,2890.45,2910.56,3157.01,350.22,348.77,8.79,0000 0000 0000 0000 000000
2015-04-17 06:59:15,0.11,1.43,0.00,23.49,26.95,29.81,4.78,24.38,1021.12,2034.00,2889.02,2909.66,3155.97,349.62,348.39,8.82,0000 0000 0000 0000 000000
2015-04-17 07:04:17,0.11,1.43,0.00,23.51,26.95,29.82,4.76,24.32,1021.04,2034.00,2887.70,2908.74,3155.01,349.95,348.26,8.85,0000 0000 0000 0000 000000
2015-04-17 07:09:18,0.11,1.43,0.00,23.52,26.95,29.82,4.74,24.12,1021.03,2034.01,2886.47,2907.85,3154.02,349.64,348.33,8.88,0000 0000 0000 0000 000000
2015-04-17 07:14:20,0.10,1.44,0.00,23.50,26.95,29.80,4.79,24.40,1021.03,2034.00,2885.18,2906.97,3153.07,349.70,348.30,8.91,0000 0000 0000 0000 000000
2015-04-17 07:19:21,0.12,1.44,0.00,23.51,26.95,29.82,4.71,24.26,1021.02,2034.00,2883.86,2906.09,3152.13,349.53,348.23,8.94,0000 0000 0000 0000 000000
2015-04-17 07:24:22,0.12,1.45,0.00,23.52,26.95,29.81,4.72,24.24,1021.01,2034.01,2882.60,2905.17,3151.13,349.85,348.45,8.97,0000 0000 0000 0000 000000
2015-04-17 07:29:24,0.11,1.45,0.00,23.52,26.95,29.79,4.79,24.31,1021.01,2034.00,2881.41,2904.35,3150.17,350.12,348.70,9.00,0000 0000 0000 0000 000000
2015-04-17 07:34:25,0.10,1.45,0.00,23.53,26.95,29.80,4.75,24.29,1021.01,2034.01,2880.27,2903.65,3149.39,349.96,348.54,9.02,0000 0000 0000 0000 000000
2015-04-17 07:39:26,0.10,1.45,0.00,23.54,26.95,29.79,4.76,24.23,1021.01,2034.01,2879.02,2902.75,3148.44,349.48,348.05,9.05,0000 0000 0000 0000 000000
2015-04-17 07:44:27,0.10,1.46,0.00,23.52,26.95,29.80,4.75,24.23,1021.01,2034.02,2877.94,2901.94,3147.58,349.95,348.30,9.08,0000 0000 0000 0000 000000
2015-04-17 07:49:29,0.11,1.46,0.00,23.53,26.95,29.81,4.83,24.25,1021.01,2034.02,2876.71,2901.08,3146.68,350.93,349.55,9.11,0000 0000 0000 0000 000000
2015-04-17 07:54:30,0.11,1.46,0.00,23.55,26.95,29.82,4.74,24.23,1021.00,2034.01,2875.47,2900.18,3145.75,349.91,348.43,9.14,0000 0000 0000 0000 000000
2015-04-17 07:59:31,0.10,1.47,0.00,23.54,26.95,29.81,4.78,24.25,1020.95,2034.00,2874.18,2899.32,3144.81,350.05,348.64,9.17,0000 0000 0000 0000 000000
2015-04-17 08:04:32,0.10,1.47,0.00,23.55,26.95,29.83,4.82,24.18,1020.87,2034.02,2872.99,2898.61,3143.96,350.23,348.68,9.20,0000 0000 0000 0000 000000
2015-04-17 08:09:34,0.11,1.47,0.00,23.55,26.95,29.83,4.77,24.35,1020.82,2034.03,2871.77,2897.77,3143.00,350.20,348.68,9.23,0000 0000 0000 0000 000000
2015-04-17 08:14:35,0.10,1.48,0.00,23.54,26.95,29.82,4.82,24.44,1020.70,2034.02,2870.49,2896.90,3142.03,350.25,348.74,9.26,0000 0000 0000 0000 000000
2015-04-17 08:19:36,0.11,1.48,0.00,23.54,26.95,29.83,4.80,24.23,1020.71,2034.02,2869.32,2896.01,3141.11,349.55,347.81,9.29,0000 0000 0000 0000 000000
2015-04-17 08:24:37,0.13,1.48,0.00,23.55,26.95,29.83,4.75,24.51,1020.82,2034.02,2867.91,2895.13,3140.17,349.97,348.42,9.32,0000 0000 0000 0000 000000
2015-04-17 08:29:39,0.11,1.49,0.00,23.52,26.95,29.83,4.73,24.32,1020.79,2034.03,2866.72,2894.22,3139.19,350.22,348.82,9.35,0000 0000 0000 0000 000000
2015-04-17 08:34:40,0.12,1.49,0.00,23.54,26.95,29.83,4.73,24.38,1020.89,2034.04,2865.51,2893.47,3138.35,349.82,348.23,9.38,0000 0000 0000 0000 000000
2015-04-17 08:39:41,0.11,1.49,0.00,23.54,26.95,29.84,4.74,24.28,1020.92,2034.00,2864.13,2892.40,3137.24,350.08,348.58,9.40,0000 0000 0000 0000 000000
2015-04-17 08:44:43,0.11,1.50,0.00,23.52,26.95,29.85,4.83,24.41,1020.93,2034.03,2862.93,2891.69,3136.40,350.64,349.19,9.43,0000 0000 0000 0000 000000
2015-04-17 08:49:44,0.11,1.50,0.00,23.52,26.95,29.85,4.79,24.38,1020.98,2034.02,2861.68,2890.85,3135.39,350.16,348.73,9.46,0000 0000 0000 0000 000000
2015-04-17 08:54:45,0.11,1.50,0.00,23.52,26.95,29.84,4.79,24.25,1020.98,2034.03,2860.41,2889.94,3134.59,349.73,348.39,9.49,0000 0000 0000 0000 000000
2015-04-17 08:59:46,0.11,1.51,0.00,23.51,26.95,29.85,4.77,24.44,1021.00,2034.04,2859.06,2889.05,3133.69,350.32,349.00,9.52,0000 0000 0000 0000 000000
2015-04-17 09:04:48,0.11,1.51,0.00,23.50,26.95,29.85,4.80,24.39,1021.00,2034.05,2857.80,2888.15,3132.84,350.13,348.76,9.55,0000 0000 0000 0000 000000
2015-04-17 09:09:49,0.13,1.51,0.00,23.52,26.95,29.85,4.83,24.24,1020.97,2034.08,2856.53,2887.36,3131.83,350.57,349.13,9.58,0000 0000 0000 0000 000000
2015-04-17 09:14:50,0.13,1.52,0.00,23.50,26.95,29.85,4.82,24.31,1020.85,2034.05,2855.01,2886.32,3130.76,350.03,348.56,9.61,0000 0000 0000 0000 000000
2015-04-17 09:19:52,0.15,1.52,0.00,23.49,26.95,29.85,4.76,24.30,1020.69,2034.09,2853.50,2885.29,3129.60,349.68,348.21,9.64,0000 0000 0000 0000 000000
2015-04-17 09:24:53,0.14,1.53,0.00,23.50,26.95,29.85,4.74,24.38,1020.67,2034.18,2852.03,2884.27,3128.61,349.76,348.21,9.67,0000 0000 0000 0000 000000
2015-04-17 09:29:55,0.13,1.53,0.00,23.49,26.95,29.84,4.78,24.56,1020.66,2034.19,2850.58,2883.29,3127.47,350.09,348.52,9.70,0000 0000 0000 0000 000000
2015-04-17 09:34:56,0.11,1.53,0.00,23.47,26.95,29.85,4.83,24.28,1020.55,2034.11,2849.10,2882.30,3126.36,350.34,348.89,9.73,0000 0000 0000 0000 000000
2015-04-17 09:39:57,0.15,1.54,0.00,23.47,26.95,29.85,4.82,24.37,1020.53,2034.11,2847.54,2881.23,3125.19,350.11,348.61,9.76,0000 0000 0000 0000 000000
2015-04-17 09:44:58,0.14,1.54,0.00,23.46,26.95,29.83,4.87,24.52,1020.54,2034.20,2846.05,2880.28,3124.09,350.05,348.56,9.79,0000 0000 0000 0000 000000
2015-04-17 09:49:59,0.13,1.55,0.00,23.44,26.95,29.84,4.73,24.30,1020.53,2034.17,2844.52,2879.20,3122.85,349.62,348.18,9.81,0000 0000 0000 0000 000000
2015-04-17 09:55:01,0.14,1.55,0.00,23.44,26.95,29.84,4.72,24.27,1020.53,2034.13,2842.93,2878.26,3121.66,349.54,347.96,9.84,0000 0000 0000 0000 000000
2015-04-17 10:00:02,0.12,1.55,0.00,23.43,26.95,29.84,4.76,24.20,1020.53,2034.09,2841.43,2877.16,3120.52,349.96,348.38,9.87,0000 0000 0000 0000 000000
2015-04-17 10:05:03,0.15,1.56,0.00,23.42,26.95,29.84,4.75,24.37,1020.52,2034.17,2840.00,2876.23,3119.45,350.39,348.75,9.90,0000 0000 0000 0000 000000
2015-04-17 10:10:04,0.13,1.57,0.00,23.42,26.94,29.84,4.78,24.28,1020.52,2034.28,2838.55,2875.18,3118.36,349.95,348.42,9.93,0000 0000 0000 0000 000000
2015-04-17 10:15:05,0.13,1.57,0.00,23.41,26.93,29.85,4.79,24.37,1020.52,2034.26,2837.01,2874.18,3117.22,349.64,348.15,9.96,0000 0000 0000 0000 000000
2015-04-17 10:20:06,0.12,1.57,0.00,23.39,26.93,29.85,4.73,24.31,1020.52,2034.20,2835.52,2873.11,3116.00,349.98,348.57,9.99,0000 0000 0000 0000 000000
2015-04-17 10:25:08,0.14,1.58,0.00,23.40,26.92,29.85,4.74,24.34,1020.52,2034.08,2833.85,2871.98,3114.79,349.53,348.20,10.02,0000 0000 0000 0000 000000
2015-04-17 10:30:09,0.26,1.58,0.00,23.39,26.92,29.85,4.88,24.32,1020.52,2034.11,2831.49,2870.35,3113.08,350.97,349.50,10.05,0000 0000 0000 0000 000000
2015-04-17 10:35:11,0.37,1.59,0.00,23.37,26.92,29.85,4.72,24.27,1020.52,2034.10,2827.69,2867.77,3110.30,349.97,348.45,10.08,0000 0000 0000 0000 000000
2015-04-17 10:40:12,0.27,1.60,0.00,23.36,26.92,29.85,4.74,24.27,1020.52,2034.08,2824.39,2865.48,3107.83,350.03,348.71,10.11,0000 0000 0000 0000 000000
2015-04-17 10:45:14,0.17,1.61,0.00,23.33,26.92,29.86,4.81,24.23,1020.53,2034.14,2822.32,2864.16,3106.38,349.84,348.49,10.14,0000 0000 0000 0000 000000
2015-04-17 10:50:15,0.17,1.61,0.00,23.30,26.92,29.86,4.87,24.20,1020.53,2034.15,2820.50,2862.89,3105.01,350.42,349.03,10.17,0000 0000 0000 0000 000000
2015-04-17 10:55:17,0.16,1.62,0.00,23.32,26.92,29.85,4.76,24.25,1020.52,2034.28,2818.88,2861.88,3103.85,350.15,348.76,10.20,0000 0000 0000 0000 000000
2015-04-17 11:00:18,0.13,1.62,0.00,23.30,26.92,29.87,4.77,24.05,1020.53,2034.36,2817.56,2860.88,3102.81,349.98,348.83,10.22,0000 0000 0000 0000 000000
2015-04-17 11:05:20,0.14,1.63,0.00,23.27,26.92,29.86,4.81,24.27,1020.52,2034.45,2816.21,2859.99,3101.80,350.07,348.96,10.25,0000 0000 0000 0000 000000
2015-04-17 11:10:21,0.11,1.63,0.00,23.28,26.91,29.87,4.78,24.32,1020.52,2034.47,2814.87,2859.04,3100.76,349.86,348.55,10.28,0000 0000 0000 0000 000000
2015-04-17 11:15:22,0.13,1.63,0.00,23.26,26.91,29.86,4.75,24.28,1020.50,2034.42,2813.51,2858.08,3099.69,350.06,348.68,10.31,0000 0000 0000 0000 000000
2015-04-17 11:20:23,0.14,1.64,0.00,23.28,26.90,29.85,4.79,24.31,1020.41,2034.59,2812.19,2857.17,3098.69,349.85,348.52,10.34,0000 0000 0000 0000 000000
2015-04-17 11:25:25,0.16,1.64,0.00,23.54,26.90,29.80,4.70,24.21,1020.31,2034.58,2810.76,2856.15,3097.63,349.50,347.87,10.37,0000 0000 0000 0000 000000
2015-04-17 11:30:26,0.13,1.65,0.00,23.74,26.91,29.77,4.73,24.32,1020.28,2034.60,2809.36,2855.16,3096.53,349.91,347.82,10.40,0000 0000 0000 0000 000000
2015-04-17 11:35:27,0.08,1.65,0.00,23.69,26.92,29.64,4.79,24.09,1020.21,2034.45,2807.81,2854.04,3095.38,350.20,348.47,10.43,0000 0000 0000 0000 000000
2015-04-17 11:40:28,0.13,1.65,0.00,23.52,26.92,29.65,4.78,24.12,1020.08,2034.15,2806.24,2853.00,3094.16,349.82,347.99,10.46,0000 0000 0000 0000 000000
2015-04-17 11:45:30,0.14,1.66,0.00,23.46,26.93,29.76,4.79,24.32,1020.05,2034.19,2804.75,2851.96,3093.01,349.97,348.28,10.49,0000 0000 0000 0000 000000
2015-04-17 11:50:31,0.13,1.66,0.00,23.41,26.94,29.84,4.77,24.34,1020.04,2034.05,2803.17,2850.84,3091.76,349.93,348.56,10.52,0000 0000 0000 0000 000000
2015-04-17 11:55:32,0.15,1.66,0.00,23.35,26.95,29.86,4.81,24.15,1020.04,2034.05,2801.60,2849.79,3090.59,350.10,348.68,10.55,0000 0000 0000 0000 000000
2015-04-17 12:00:33,0.11,1.67,0.00,23.30,26.95,29.90,4.81,23.93,1020.04,2034.04,2800.23,2848.84,3089.54,350.35,348.82,10.58,0000 0000 0000 0000 000000
2015-04-17 12:05:34,0.13,1.67,0.00,23.27,26.95,29.92,4.80,24.02,1020.04,2034.06,2798.79,2847.91,3088.55,349.90,348.58,10.61,0000 0000 0000 0000 000000
2015-04-17 12:10:36,0.14,1.68,0.00,23.26,26.95,29.90,4.79,24.19,1020.04,2034.07,2797.33,2846.88,3087.40,350.01,348.50,10.64,0000 0000 0000 0000 000000
2015-04-17 12:15:37,0.12,1.68,0.00,23.22,26.95,29.91,4.82,24.35,1020.02,2034.06,2795.87,2845.88,3086.39,350.28,349.06,10.66,0000 0000 0000 0000 000000
2015-04-17 12:20:38,0.12,1.68,0.00,23.32,26.94,29.89,4.83,24.11,1020.01,2034.08,2794.55,2844.99,3085.34,350.21,348.71,10.69,0000 0000 0000 0000 000000
2015-04-17 12:25:39,0.13,1.69,0.00,23.61,26.95,29.83,4.74,24.13,1020.00,2034.10,2793.29,2844.06,3084.37,350.29,348.42,10.72,0000 0000 0000 0000 000000
2015-04-17 12:30:41,0.11,1.69,0.00,23.71,26.95,29.83,4.79,24.01,1019.96,2034.04,2791.94,2843.09,3083.31,349.63,347.62,10.75,0000 0000 0000 0000 000000
2015-04-17 12:35:42,0.13,1.69,0.00,23.66,26.95,29.76,4.81,24.22,1019.86,2034.03,2790.63,2842.17,3082.37,350.56,348.55,10.78,0000 0000 0000 0000 000000
2015-04-17 12:40:43,0.12,1.70,0.00,23.48,26.95,29.77,4.74,24.09,1019.66,2034.04,2789.22,2841.18,3081.27,349.91,348.09,10.81,0000 0000 0000 0000 000000
2015-04-17 12:45:45,0.12,1.70,0.00,23.40,26.96,29.87,4.76,24.24,1019.59,2034.01,2787.87,2840.30,3080.31,349.94,348.15,10.84,0000 0000 0000 0000 000000
2015-04-17 12:50:46,0.12,1.70,0.00,23.33,26.97,29.92,4.77,24.24,1019.58,2034.01,2786.69,2839.53,3079.37,349.91,348.15,10.87,0000 0000 0000 0000 000000
2015-04-17 12:55:47,0.11,1.71,0.00,23.29,26.97,29.93,4.79,24.18,1019.55,2034.00,2785.43,2838.63,3078.40,350.35,348.41,10.90,0000 0000 0000 0000 000000
2015-04-17 13:00:49,0.08,1.71,0.00,23.23,26.97,29.94,4.76,24.21,1019.55,2034.01,2784.34,2837.90,3077.58,349.77,348.10,10.93,0000 0000 0000 0000 000000
2015-04-17 13:05:50,0.10,1.72,0.00,23.32,26.97,29.91,4.75,23.95,1019.55,2034.01,2783.22,2837.06,3076.69,350.10,348.47,10.96,0000 0000 0000 0000 000000